TimeCDT,TemperatureF,Dew PointF,Humidity,Sea Level PressureIn,VisibilityMPH,Wind Direction,Wind SpeedMPH,Gust SpeedMPH,PrecipitationIn,Events,Conditions,WindDirDegrees,DateUTC
12:15 AM,62.6,44.6,52,29.99,10.0,South,5.8,-,N/A,,Clear,170,2013-05-08 05:15:00
12:35 AM,60.8,46.4,59,29.99,3.0,South,4.6,-,N/A,,Haze,180,2013-05-08 05:35:00
12:55 AM,59.0,46.4,63,29.99,2.5,SSW,5.8,-,N/A,,Haze,200,2013-05-08 05:55:00
1:15 AM,60.8,46.4,59,29.99,6.0,SSW,4.6,-,N/A,,Haze,200,2013-05-08 06:15:00
1:35 AM,62.6,44.6,52,29.99,6.0,South,4.6,-,N/A,,Haze,180,2013-05-08 06:35:00
1:55 AM,59.0,46.4,63,29.99,10.0,Calm,Calm,-,N/A,,Clear,0,2013-05-08 06:55:00
2:15 AM,59.0,46.4,63,29.98,10.0,SSE,4.6,-,N/A,,Clear,160,2013-05-08 07:15:00
2:35 AM,59.0,46.4,63,29.98,10.0,SSE,5.8,-,N/A,,Clear,160,2013-05-08 07:35:00
2:55 AM,57.2,48.2,72,29.98,10.0,SSE,6.9,-,N/A,,Clear,160,2013-05-08 07:55:00
3:15 AM,57.2,46.4,67,29.98,10.0,South,5.8,-,N/A,,Clear,190,2013-05-08 08:15:00
3:35 AM,57.2,48.2,72,29.98,10.0,South,4.6,-,N/A,,Clear,190,2013-05-08 08:35:00
3:55 AM,59.0,46.4,63,29.98,10.0,South,5.8,-,N/A,,Clear,180,2013-05-08 08:55:00
4:15 AM,57.2,48.2,72,29.98,10.0,South,4.6,-,N/A,,Clear,190,2013-05-08 09:15:00
4:35 AM,57.2,48.2,72,29.98,10.0,South,4.6,-,N/A,,Clear,190,2013-05-08 09:35:00
4:55 AM,57.2,48.2,72,29.98,10.0,SSW,5.8,-,N/A,,Clear,200,2013-05-08 09:55:00
5:15 AM,57.2,48.2,72,29.98,-9999.0,SSW,4.6,-,N/A,,Clear,200,2013-05-08 10:15:00
5:35 AM,57.2,48.2,72,29.99,6.0,SSW,4.6,-,N/A,,Haze,210,2013-05-08 10:35:00
5:55 AM,57.2,48.2,72,29.99,1.2,SW,5.8,-,N/A,,Haze,220,2013-05-08 10:55:00
6:15 AM,55.4,48.2,77,29.99,9.0,Calm,Calm,-,N/A,,Clear,0,2013-05-08 11:15:00
6:35 AM,57.2,48.2,72,29.99,10.0,South,4.6,-,N/A,,Clear,180,2013-05-08 11:35:00
6:55 AM,57.2,48.2,72,30.00,10.0,South,4.6,-,N/A,,Clear,180,2013-05-08 11:55:00
7:15 AM,57.2,50.0,77,30.00,10.0,SSE,4.6,-,N/A,,Clear,160,2013-05-08 12:15:00
7:35 AM,59.0,51.8,77,30.01,10.0,South,4.6,-,N/A,,Clear,170,2013-05-08 12:35:00
8:35 AM,64.4,53.6,68,30.01,10.0,South,4.6,-,N/A,,Clear,170,2013-05-08 13:35:00
8:55 AM,64.4,53.6,68,30.01,10.0,SSE,4.6,-,N/A,,Clear,160,2013-05-08 13:55:00
9:15 AM,68.0,51.8,56,30.02,10.0,South,5.8,-,N/A,,Clear,190,2013-05-08 14:15:00
9:35 AM,69.8,51.8,53,30.02,10.0,Calm,Calm,-,N/A,,Clear,0,2013-05-08 14:35:00
9:55 AM,69.8,53.6,56,30.02,10.0,SSW,6.9,-,N/A,,Clear,200,2013-05-08 14:55:00
10:15 AM,71.6,53.6,53,30.01,10.0,South,5.8,-,N/A,,Scattered Clouds,180,2013-05-08 15:15:00
10:35 AM,71.6,51.8,50,30.01,10.0,SSW,10.4,16.1,N/A,,Partly Cloudy,200,2013-05-08 15:35:00
10:55 AM,71.6,51.8,50,30.01,10.0,South,11.5,17.3,N/A,,Clear,170,2013-05-08 15:55:00
11:15 AM,71.6,51.8,50,30.01,10.0,South,9.2,-,N/A,,Clear,190,2013-05-08 16:15:00
11:35 AM,71.6,51.8,50,30.01,10.0,SSW,8.1,15.0,N/A,,Partly Cloudy,210,2013-05-08 16:35:00
11:55 AM,71.6,51.8,50,30.01,10.0,SW,11.5,-,N/A,,Clear,220,2013-05-08 16:55:00
12:15 PM,71.6,51.8,50,30.01,10.0,SSW,10.4,-,N/A,,Clear,210,2013-05-08 17:15:00
12:35 PM,71.6,53.6,53,30.00,10.0,SW,10.4,-,N/A,,Partly Cloudy,230,2013-05-08 17:35:00
12:55 PM,69.8,51.8,53,30.00,10.0,SSW,9.2,-,N/A,,Scattered Clouds,210,2013-05-08 17:55:00
1:15 PM,69.8,51.8,53,30.00,10.0,SW,8.1,-,N/A,,Mostly Cloudy,220,2013-05-08 18:15:00
1:35 PM,68.0,53.6,60,30.00,9.0,WSW,6.9,-,N/A,,Light Drizzle,240,2013-05-08 18:35:00
1:55 PM,68.0,55.4,64,30.00,10.0,WSW,11.5,-,N/A,,Mostly Cloudy,250,2013-05-08 18:55:00
2:15 PM,66.2,55.4,68,30.00,10.0,WSW,8.1,-,N/A,,Mostly Cloudy,250,2013-05-08 19:15:00
2:35 PM,66.2,55.4,68,30.00,10.0,West,6.9,-,N/A,Rain,Light Rain,260,2013-05-08 19:35:00
2:55 PM,66.2,55.4,68,30.00,10.0,West,4.6,-,N/A,,Light Drizzle,270,2013-05-08 19:55:00
3:35 PM,64.4,57.2,77,29.99,10.0,NNW,4.6,-,N/A,,Light Drizzle,340,2013-05-08 20:35:00
3:55 PM,66.2,57.2,73,29.98,10.0,NW,4.6,-,N/A,,Overcast,320,2013-05-08 20:55:00
4:15 PM,66.2,57.2,73,29.98,10.0,Variable,4.6,-,N/A,,Overcast,0,2013-05-08 21:15:00
4:35 PM,66.2,57.2,73,29.97,10.0,North,4.6,-,N/A,,Mostly Cloudy,360,2013-05-08 21:35:00
4:55 PM,66.2,57.2,73,29.97,10.0,NNE,4.6,-,N/A,,Scattered Clouds,20,2013-05-08 21:55:00
5:15 PM,66.2,57.2,73,29.97,10.0,Calm,Calm,-,N/A,,Mostly Cloudy,0,2013-05-08 22:15:00
5:35 PM,66.2,57.2,73,29.97,-9999.0,NNE,5.8,-,N/A,,Overcast,30,2013-05-08 22:35:00
5:55 PM,66.2,57.2,73,29.96,10.0,NE,5.8,-,N/A,,Light Drizzle,50,2013-05-08 22:55:00
6:15 PM,64.4,57.2,77,29.96,10.0,NE,5.8,-,N/A,,Overcast,40,2013-05-08 23:15:00
6:35 PM,64.4,59.0,83,29.95,10.0,ENE,5.8,-,N/A,,Overcast,60,2013-05-08 23:35:00
6:55 PM,64.4,59.0,83,29.95,10.0,ENE,4.6,-,N/A,,Overcast,60,2013-05-08 23:55:00
7:15 PM,64.4,59.0,83,29.95,10.0,ENE,5.8,-,N/A,,Overcast,70,2013-05-09 00:15:00
7:35 PM,64.4,57.2,77,29.95,10.0,East,5.8,-,N/A,,Overcast,90,2013-05-09 00:35:00
7:55 PM,64.4,57.2,77,29.95,10.0,East,5.8,-,N/A,,Overcast,80,2013-05-09 00:55:00
8:15 PM,64.4,57.2,77,29.95,10.0,East,5.8,-,N/A,,Overcast,80,2013-05-09 01:15:00
8:35 PM,62.6,57.2,82,29.95,10.0,ENE,6.9,-,N/A,,Overcast,70,2013-05-09 01:35:00
8:55 PM,62.6,57.2,82,29.95,10.0,East,6.9,-,N/A,,Overcast,80,2013-05-09 01:55:00
9:15 PM,62.6,57.2,82,29.95,10.0,ENE,5.8,-,N/A,,Overcast,70,2013-05-09 02:15:00
9:35 PM,62.6,57.2,82,29.95,10.0,ENE,5.8,-,N/A,,Overcast,70,2013-05-09 02:35:00
10:15 PM,60.8,57.2,88,29.94,10.0,East,6.9,-,N/A,,Overcast,80,2013-05-09 03:15:00
10:35 PM,60.8,57.2,88,29.95,10.0,East,4.6,-,N/A,,Mostly Cloudy,80,2013-05-09 03:35:00
11:55 PM,60.8,55.4,82,29.93,10.0,East,6.9,-,N/A,,Scattered Clouds,100,2013-05-09 04:55:00